Dewpoint
4 4 2 -1 2 3 -1 0 4 4 4 5 5 5 4 2 -2 -5 -5 -5 -5 -6 -6 -5 -6 -6 -6 -7 -2 -2 -7 -8 -8 -8 -7 -8 -9 -9 -11 -11 -12 -9
4 5 3 -1 1 5 3 2 4 5 4 4 5 5 5 4 0 -3 -4 -5 -5 -5 -6 -5 -5 -6 -5 -7 -6 -5 -7 -7 -8 -8 -7 -8 -8 -9 -11 -11 -13 -9
4 5 5 2 1 4 5 4 4 5 5 5 4 5 5 4 2 -2 -3 -4 -4 -5 -6 -6 -5 -6 -5 -6 -6 -5 -6 -7 -8 -8 -8 -8 -7 -9 -10 -10 -12 -10
4 6 6 6 4 3 4 5 5 5 6 6 4 4 5 5 3 0 -1 -2 -3 -3 -5 -6 -6 -5 -5 -6 -5 -4 -5 -5 -7 -8 -8 -8 -8 -8 -9 -10 -12 -10
4 6 6 6 6 5 4 5 6 6 6 6 5 4 5 5 4 2 -0 -1 -2 -2 -3 -5 -5 -5 -5 -5 -5 -4 -5 -5 -6 -7 -7 -8 -8 -8 -8 -9 -9 -11
5 7 7 7 7 6 5 5 6 6 6 5 6 5 5 5 5 4 2 1 -0 -0 -1 -2 -3 -4 -4 -4 -4 -4 -5 -5 -6 -6 -6 -6 -7 -7 -8 -8 -8 -9
7 8 8 7 6 5 5 6 6 6 5 5 5 5 6 6 5 6 5 4 3 2 2 1 1 -1 -2 -3 -3 -4 -4 -4 -4 -5 -5 -4 -5 -6 -7 -7 -8 -8
7 8 7 6 4 4 4 5 5 5 4 4 5 6 6 6 6 6 7 6 6 5 5 5 4 4 3 1 -0 -2 -2 -2 -3 -4 -4 -3 -3 -5 -6 -7 -7 -6
5 5 5 4 3 4 5 5 5 5 3 3 4 5 5 6 6 6 7 7 6 6 6 7 7 6 6 5 3 2 1 0 -1 -2 -3 -3 -3 -3 -5 -4 -5 -6
4 5 5 5 5 5 5 6 6 5 4 4 4 4 5 6 7 7 6 6 7 7 7 7 7 7 7 6 6 5 3 3 2 1 -1 -1 -1 -2 -2 -1 -1 -4
6 7 7 6 6 5 5 6 7 7 7 6 5 5 5 6 7 7 7 6 7 6 7 7 7 7 7 6 6 6 5 4 4 3 2 1 1 0 -0 1 2 -1
8 9 8 7 7 6 5 5 6 7 7 7 6 5 5 7 7 7 7 7 7 7 7 7 6 6 6 6 6 6 6 5 5 5 4 3 3 2 1 1 2 -0
8 7 7 7 7 6 6 6 5 5 6 7 6 5 5 6 7 6 6 6 6 6 6 7 7 6 6 6 6 6 6 6 5 5 5 4 4 3 3 2 1 -1
3 3 3 3 3 4 5 5 5 5 5 6 6 6 5 6 7 6 5 5 5 5 5 6 7 7 7 7 6 6 6 6 6 6 5 5 4 4 3 3 2 1
-1 -0 -1 -2 -2 1 3 4 4 5 5 4 4 4 5 5 6 6 6 5 5 5 5 6 6 6 6 6 6 6 6 6 6 6 5 5 5 4 4 3 3 2
-4 -3 -3 -3 -2 -0 1 2 2 4 4 3 2 2 2 3 4 5 5 5 6 6 6 6 6 5 5 6 7 7 6 6 6 6 6 6 5 4 4 3 3 2
-4 -4 -3 -3 -3 -2 -2 -1 -0 1 2 2 2 3 2 2 1 1 0 1 4 6 7 7 7 6 6 6 6 7 6 6 6 6 6 6 5 4 4 4 3 2
-3 -3 -3 -3 -3 -3 -2 -2 -1 -1 -1 0 2 3 3 4 3 2 -0 -2 0 3 5 7 7 7 7 7 6 7 6 6 6 6 5 5 5 4 4 3 3 2
-4 -3 -3 -3 -3 -2 -2 -2 -1 -0 -0 -0 1 1 2 4 5 5 5 4 3 3 3 6 6 5 6 7 7 7 7 6 5 5 5 5 5 4 4 3 3 2
-3 -3 -3 -2 -2 -2 -2 -2 -2 -1 -0 0 0 1 1 2 3 4 5 5 5 3 2 4 5 3 3 5 6 7 7 6 6 6 5 5 5 4 4 3 3 2
-3 -2 -1 -1 -1 -2 -2 -2 -2 -2 -1 -0 0 0 0 1 2 3 4 4 4 4 4 5 6 6 4 4 5 6 6 6 6 6 5 5 5 4 4 3 3 2
-3 -2 -1 -1 -0 -0 -1 -1 -1 -1 -1 -0 1 1 1 1 1 2 2 3 3 4 5 6 6 6 6 5 6 6 6 6 5 5 6 5 5 4 4 3 2 1
-4 -3 -2 -1 -1 -0 0 -0 -0 -0 -0 0 0 1 2 2 1 2 2 2 3 3 4 5 5 6 6 6 6 6 6 6 5 5 6 5 4 3 2 2 1 0
-3 -3 -3 -2 -2 -1 -1 -1 -0 -0 0 0 0 1 2 2 2 2 2 2 2 3 4 4 4 5 5 6 6 6 6 5 5 5 5 5 3 2 1 0 -0 -2
-3 -3 -2 -2 -2 -1 -1 -1 -0 -0 -0 0 1 1 2 2 2 3 3 2 2 2 3 4 4 4 5 5 6 6 6 5 5 5 4 3 2 0 -1 -2 -3 -3
-3 -2 -2 -2 -2 -1 0 1 1 1 1 1 2 2 2 2 2 2 2 2 2 2 3 4 4 4 5 5 6 6 6 5 5 5 4 2 1 -1 -2 -2 -2 -4
Wind_Speed
20 19 17 16 14 11 10 10 9 8 7 7 7 7 5 4 1 1 2 2 2 2 3 3 4 4 4 5 5 3 5 6 6 7 7 6 7 7 7 6 5 5
20 18 16 15 15 12 11 10 10 10 9 9 8 8 8 8 4 2 2 3 3 3 3 2 3 2 2 3 3 2 4 5 5 6 6 6 7 7 7 7 6 5
20 18 15 14 14 13 11 10 11 11 10 9 10 9 10 11 9 5 4 4 5 5 4 3 2 2 2 2 1 1 3 3 4 5 5 6 6 6 7 6 6 6
20 18 16 14 13 13 11 10 11 11 11 10 10 11 11 13 13 10 8 6 6 7 6 5 4 3 2 2 1 1 2 3 3 4 4 5 5 6 6 6 6 6
19 18 17 15 13 13 12 12 12 12 11 11 11 12 12 14 16 14 11 10 9 9 9 8 6 5 4 3 2 2 2 2 2 2 3 4 4 4 4 4 5 4
17 17 16 15 15 15 14 13 14 14 13 11 11 13 13 15 17 17 15 14 12 11 11 11 10 8 7 6 5 4 3 3 2 1 3 4 3 2 2 3 3 3
15 15 16 16 17 17 15 16 17 16 15 14 14 14 15 15 18 18 17 15 15 14 13 14 13 11 11 9 8 7 6 5 5 4 3 4 5 3 3 3 2 2
15 15 16 17 17 17 18 18 18 18 18 17 16 16 16 16 18 19 18 16 16 16 14 14 15 14 13 12 11 10 9 8 9 8 6 6 7 7 6 6 4 2
15 16 18 19 18 18 18 19 18 19 20 19 18 18 18 19 19 19 19 18 18 18 16 15 15 15 15 15 13 13 12 12 12 11 9 8 10 10 9 9 7 4
17 19 21 21 20 20 19 19 19 20 21 21 21 21 21 20 21 22 22 21 20 20 18 17 17 17 17 17 16 14 14 14 14 14 12 11 12 12 9 10 11 9
13 17 18 19 20 21 21 20 20 19 20 20 21 22 21 21 23 25 24 22 22 22 20 20 19 19 19 19 18 16 15 16 16 17 15 13 13 14 10 11 14 12
9 11 12 12 14 16 18 20 20 19 20 22 22 23 23 24 26 26 24 22 23 23 22 22 22 22 21 20 19 18 16 16 17 18 18 15 15 15 12 14 16 14
6 6 7 8 10 12 14 16 17 17 19 22 24 24 25 27 28 28 24 22 22 22 22 25 25 23 22 21 20 20 19 18 18 19 19 17 16 15 15 17 17 16
0 2 3 4 6 7 9 10 11 12 14 18 22 23 24 25 26 28 26 23 24 25 26 28 27 25 22 21 22 23 22 21 20 20 19 19 18 17 17 18 17 16
1 1 3 3 3 3 5 6 6 7 8 12 16 18 19 19 21 24 25 24 25 26 26 27 27 25 24 24 25 25 24 23 21 20 20 20 20 19 18 18 17 16
1 2 3 3 3 4 5 6 7 8 9 10 11 12 14 15 16 20 22 23 24 24 24 25 24 24 26 28 29 30 28 24 22 22 21 20 20 20 19 18 18 17
2 3 3 3 4 5 6 7 7 9 10 11 13 13 14 14 14 15 17 18 20 21 22 24 24 24 25 28 31 33 29 24 23 24 23 21 20 20 19 19 18 17
3 4 4 5 5 5 6 7 7 8 9 11 12 14 15 16 15 15 16 16 16 17 18 20 23 24 25 26 28 30 27 25 25 26 25 22 21 20 19 19 18 18
4 5 5 5 6 6 7 8 8 8 9 10 12 13 14 16 17 16 17 18 18 19 18 19 22 23 23 23 25 27 27 27 27 27 26 24 22 22 21 20 20 20
5 6 6 6 6 7 8 9 9 9 10 11 12 13 13 14 16 16 18 19 21 22 21 20 23 23 20 19 22 26 29 28 27 28 28 25 24 24 24 23 22 22
6 6 7 7 8 8 9 10 10 11 11 12 12 13 13 14 15 16 18 19 21 23 22 21 22 22 20 18 20 24 27 27 27 28 28 27 27 28 27 26 25 23
7 8 8 9 10 10 10 11 11 11 12 12 13 14 14 14 15 16 18 19 21 22 23 23 23 22 22 22 21 23 25 26 27 29 28 28 29 29 27 25 23 22
8 9 10 11 11 11 12 12 12 12 13 13 14 14 14 14 15 16 17 18 20 22 23 24 23 23 24 23 23 24 25 26 27 27 26 27 28 26 24 22 20 20
10 10 11 12 12 13 13 14 14 14 14 14 15 15 15 15 15 16 16 18 20 22 23 24 23 22 23 22 22 23 24 24 23 22 22 23 22 19 17 16 15 15
11 12 12 13 14 15 15 16 16 16 16 15 15 15 15 15 15 16 18 20 22 23 24 25 24 22 22 21 21 22 22 20 19 20 20 20 18 15 14 13 12 12
14 14 14 14 15 15 15 16 16 16 16 15 15 15 14 14 16 19 20 21 22 22 23 24 24 22 21 20 19 19 20 20 21 22 22 22 21 20 18 17 15 16
Wind_Direction
185 193 194 188 189 203 209 198 201 214 198 197 232 254 262 274 317 28 0 13 25 39 64 69 65 71 72 84 101 78 51 51 47 50 57 63 67 67 68 70 74 85
188 193 198 193 186 196 215 203 195 217 216 197 215 245 255 264 279 293 314 330 332 345 22 48 52 57 56 72 91 62 54 57 53 52 53 58 62 62 64 65 63 68
188 190 195 196 187 189 214 216 198 210 225 210 208 230 248 259 269 279 293 310 314 322 341 353 12 22 17 48 54 4 39 44 48 55 51 51 53 54 60 63 61 63
190 189 190 193 189 189 206 220 209 208 222 224 218 221 236 254 265 272 281 292 298 301 312 321 330 335 333 5 354 315 0 14 30 42 42 51 52 47 52 54 56 60
192 191 190 191 189 190 199 213 215 209 215 229 234 229 229 245 260 269 275 281 284 287 295 301 303 303 301 308 296 277 302 326 7 24 8 23 42 48 49 48 52 55
194 195 195 195 194 195 197 207 217 217 216 222 236 242 237 239 254 265 271 277 278 276 280 286 291 289 285 286 277 264 273 286 298 338 327 333 354 31 32 30 43 41
191 196 200 204 207 206 205 212 223 229 229 225 228 240 245 243 251 259 264 268 270 270 270 273 278 280 277 278 274 266 264 261 268 278 273 282 297 309 325 331 349 9
196 205 214 221 224 221 219 223 227 232 239 237 230 233 240 244 249 255 259 258 257 259 259 258 264 268 269 270 269 266 264 256 261 272 262 251 267 283 293 296 297 288
215 224 230 233 232 227 228 233 234 237 243 244 239 237 237 239 243 249 253 253 249 250 247 244 248 254 258 262 262 259 261 259 259 268 269 253 253 266 274 276 278 268
227 232 233 231 229 226 229 234 237 243 250 249 247 248 245 239 237 242 247 248 245 245 243 240 242 246 249 254 256 253 252 254 258 265 270 260 250 255 255 252 261 268
227 233 236 233 231 230 231 231 230 234 243 245 245 251 256 252 245 243 245 244 241 242 243 240 240 243 246 249 254 254 244 243 251 261 268 263 250 250 243 230 243 258
218 233 245 246 244 244 240 235 232 232 237 241 241 243 248 250 246 243 243 242 241 242 244 244 242 242 243 246 252 255 249 242 244 252 261 259 247 245 238 225 234 250
220 240 250 250 250 253 251 247 245 246 247 247 246 245 244 245 246 249 253 254 252 250 250 250 246 241 240 243 247 250 250 247 244 247 253 252 244 239 233 230 236 247
212 285 278 266 257 258 264 263 260 260 260 257 254 253 252 251 252 256 259 259 256 255 256 254 250 243 240 240 242 246 248 248 248 249 248 246 242 236 230 234 241 245
115 274 287 305 306 301 301 300 292 282 277 268 262 261 264 265 263 261 259 256 254 254 256 256 253 248 245 241 240 242 243 244 248 250 246 241 239 235 232 235 241 247
227 263 280 291 284 278 280 286 288 288 286 280 276 274 273 272 268 263 260 260 259 257 253 252 250 248 246 242 238 239 241 245 249 248 243 238 234 234 234 236 242 253
283 272 277 272 265 265 268 270 273 279 285 290 290 284 278 274 269 266 266 265 264 261 255 253 252 251 249 244 240 240 242 244 245 244 242 238 232 232 236 240 249 260
282 271 265 261 260 261 264 266 264 264 268 275 283 285 283 281 276 274 276 274 270 266 261 259 259 257 256 250 243 241 242 242 242 242 241 235 227 229 237 245 256 268
279 279 277 273 270 268 263 262 263 262 259 255 259 268 275 277 275 271 268 268 269 267 263 261 262 261 258 251 245 242 242 243 245 242 236 228 224 231 242 251 261 270
284 281 278 274 274 274 271 269 267 265 264 259 254 255 259 266 270 269 264 262 263 266 264 260 261 264 263 254 250 246 241 243 248 244 233 227 231 243 252 257 262 267
289 281 277 272 270 271 270 270 271 270 270 268 264 262 260 260 263 265 267 267 266 268 267 261 257 262 265 260 254 249 244 246 250 245 238 238 244 252 257 260 262 265
289 282 279 277 276 277 275 274 275 275 274 273 272 270 267 264 262 261 263 265 266 267 265 259 256 257 259 259 254 249 248 247 243 241 243 247 249 252 256 259 263 268
285 282 281 281 282 282 282 282 281 277 275 274 273 273 271 269 268 266 264 264 264 264 261 258 257 256 257 257 254 250 247 243 238 239 245 247 247 251 257 262 268 274
280 279 279 278 278 277 278 278 278 277 276 274 272 272 272 271 269 269 269 266 262 259 257 256 256 257 257 255 251 248 244 240 240 245 248 247 248 254 260 266 271 276
276 275 275 274 273 274 274 273 274 274 273 272 270 269 270 273 273 269 264 262 259 255 254 254 255 256 257 252 246 242 239 239 247 251 246 241 240 239 239 243 249 259
279 276 275 274 273 273 271 271 273 274 272 269 268 267 268 270 268 263 259 259 260 258 254 255 257 257 255 251 245 241 240 245 253 252 241 233 230 228 230 239 252 267
Height
1509 1511 1512 1513 1514 1516 1517 1518 1519 1520 1521 1522 1522 1522 1522 1523 1524 1524 1524 1525 1525 1526 1526 1527 1527 1527 1527 1527 1528 1528 1528 1528 1528 1529 1529 1529 1530 1530 1530 1530 1530 1530
1508 1510 1511 1512 1514 1516 1517 1518 1520 1520 1521 1522 1523 1523 1522 1523 1523 1524 1524 1525 1525 1525 1526 1526 1526 1527 1527 1527 1528 1528 1528 1528 1528 1529 1529 1529 1529 1530 1530 1530 1530 1530
1507 1509 1511 1512 1514 1516 1517 1518 1520 1521 1521 1522 1523 1523 1523 1522 1523 1524 1524 1524 1524 1524 1525 1526 1526 1526 1527 1527 1527 1527 1527 1528 1528 1528 1529 1529 1529 1529 1529 1530 1530 1530
1506 1509 1510 1512 1513 1515 1517 1518 1519 1520 1521 1522 1523 1524 1523 1522 1522 1523 1523 1524 1524 1524 1524 1525 1525 1526 1526 1526 1527 1527 1527 1527 1527 1528 1528 1528 1529 1529 1529 1529 1529 1530
1505 1508 1510 1512 1513 1514 1516 1517 1518 1519 1520 1521 1522 1523 1523 1523 1522 1522 1523 1523 1523 1523 1523 1524 1524 1525 1525 1526 1526 1526 1527 1527 1527 1527 1527 1528 1528 1528 1529 1529 1529 1529
1504 1507 1509 1511 1512 1513 1515 1515 1516 1517 1519 1520 1521 1521 1522 1522 1521 1521 1522 1522 1522 1523 1522 1523 1523 1524 1524 1525 1525 1526 1526 1526 1526 1527 1527 1527 1527 1528 1528 1529 1529 1529
1503 1506 1508 1509 1510 1512 1513 1514 1515 1515 1517 1518 1519 1520 1521 1521 1521 1521 1521 1521 1521 1521 1522 1521 1522 1522 1523 1523 1524 1524 1525 1525 1525 1526 1526 1526 1526 1527 1527 1528 1528 1528
1502 1505 1507 1508 1509 1510 1511 1512 1513 1514 1515 1516 1518 1519 1520 1520 1520 1520 1520 1520 1520 1520 1521 1521 1521 1521 1521 1522 1522 1523 1523 1524 1524 1524 1525 1525 1525 1525 1526 1526 1527 1527
1501 1503 1505 1507 1508 1509 1510 1512 1513 1513 1514 1515 1516 1517 1518 1518 1519 1518 1519 1519 1519 1519 1520 1520 1520 1520 1519 1520 1520 1521 1522 1522 1523 1523 1524 1524 1524 1524 1524 1524 1525 1526
1500 1501 1503 1505 1505 1506 1508 1510 1512 1513 1513 1514 1515 1516 1516 1516 1517 1517 1517 1517 1518 1518 1518 1519 1519 1519 1518 1518 1518 1520 1520 1521 1521 1522 1522 1523 1523 1523 1524 1523 1523 1524
1499 1501 1502 1502 1503 1504 1505 1506 1509 1511 1513 1513 1514 1515 1515 1516 1516 1515 1515 1516 1516 1517 1517 1518 1518 1518 1517 1517 1517 1518 1519 1520 1520 1520 1521 1522 1522 1522 1523 1523 1522 1522
1499 1500 1501 1501 1502 1502 1503 1504 1505 1507 1510 1511 1511 1512 1512 1513 1513 1512 1512 1514 1515 1516 1517 1517 1517 1517 1517 1517 1517 1516 1517 1518 1519 1519 1519 1520 1520 1520 1521 1521 1521 1521
1498 1499 1500 1500 1501 1502 1503 1503 1503 1505 1508 1510 1509 1508 1508 1509 1509 1509 1511 1513 1513 1514 1515 1515 1515 1516 1516 1517 1517 1516 1515 1516 1517 1517 1518 1519 1519 1519 1519 1519 1519 1519
1498 1498 1498 1499 1500 1500 1501 1502 1502 1503 1506 1507 1506 1505 1505 1506 1507 1508 1509 1510 1510 1510 1511 1511 1512 1514 1515 1516 1516 1515 1514 1513 1513 1514 1515 1517 1517 1517 1517 1517 1517 1517
1498 1498 1498 1498 1499 1499 1500 1500 1501 1502 1503 1503 1503 1502 1502 1502 1503 1504 1505 1506 1506 1507 1507 1508 1509 1512 1514 1515 1515 1514 1513 1512 1511 1511 1512 1514 1515 1515 1516 1515 1515 1515
1497 1497 1497 1498 1498 1499 1499 1500 1500 1501 1501 1501 1501 1500 1500 1500 1501 1501 1502 1502 1503 1503 1505 1505 1506 1509 1511 1512 1512 1512 1511 1511 1510 1510 1510 1511 1512 1513 1514 1513 1513 1513
1496 1496 1497 1497 1498 1498 1499 1500 1500 1500 1500 1499 1499 1498 1499 1499 1499 1499 1500 1500 1500 1500 1501 1502 1503 1505 1506 1508 1509 1509 1509 1509 1509 1508 1507 1509 1510 1511 1511 1511 1511 1512
1495 1495 1495 1496 1496 1497 1498 1499 1499 1499 1499 1498 1498 1498 1498 1497 1498 1498 1497 1498 1498 1498 1499 1500 1500 1501 1503 1504 1505 1506 1507 1507 1506 1505 1505 1507 1508 1509 1509 1510 1510 1510
1494 1494 1494 1494 1495 1495 1496 1497 1497 1498 1498 1498 1497 1497 1497 1497 1496 1496 1496 1496 1496 1496 1497 1497 1497 1498 1500 1501 1501 1503 1504 1504 1504 1503 1503 1505 1506 1507 1507 1508 1508 1508
1493 1493 1493 1493 1493 1494 1494 1495 1496 1496 1496 1496 1496 1496 1496 1496 1495 1495 1495 1495 1495 1494 1495 1495 1495 1495 1497 1498 1499 1499 1500 1501 1501 1501 1501 1503 1504 1505 1505 1506 1506 1506
1491 1491 1492 1492 1492 1492 1493 1493 1493 1494 1494 1494 1494 1494 1494 1494 1494 1494 1493 1493 1493 1492 1493 1493 1493 1493 1494 1495 1496 1497 1498 1499 1499 1499 1500 1501 1502 1502 1503 1503 1503 1503
1490 1490 1490 1490 1490 1490 1491 1491 1491 1491 1491 1492 1492 1492 1492 1491 1492 1492 1491 1491 1491 1490 1490 1490 1490 1491 1492 1493 1494 1495 1496 1496 1495 1496 1497 1499 1500 1500 1501 1501 1501 1501
1489 1489 1489 1489 1489 1489 1488 1488 1488 1488 1489 1489 1489 1489 1489 1489 1489 1489 1489 1489 1489 1488 1487 1487 1488 1489 1489 1490 1491 1492 1492 1493 1493 1494 1495 1496 1497 1498 1498 1498 1499 1499
1487 1487 1487 1487 1487 1487 1487 1487 1486 1486 1486 1486 1486 1486 1487 1487 1487 1487 1487 1486 1485 1485 1484 1484 1485 1486 1487 1487 1488 1489 1489 1490 1491 1492 1493 1494 1495 1496 1496 1496 1497 1497
1485 1485 1485 1485 1485 1485 1485 1484 1484 1484 1484 1484 1484 1484 1484 1484 1484 1484 1483 1482 1482 1482 1481 1482 1483 1483 1484 1485 1485 1487 1488 1488 1489 1490 1491 1492 1493 1494 1494 1494 1495 1495
1483 1483 1483 1483 1483 1482 1482 1482 1482 1482 1481 1481 1482 1482 1482 1482 1481 1480 1479 1479 1479 1479 1479 1480 1480 1481 1481 1482 1483 1485 1486 1486 1487 1487 1488 1489 1490 1491 1492 1492 1493 1493